TimeEDT,TemperatureF,Dew PointF,Humidity,Sea Level PressureIn,VisibilityMPH,Wind Direction,Wind SpeedMPH,Gust SpeedMPH,PrecipitationIn,Events,Conditions,WindDirDegrees,DateUTC
12:15 AM,73.4,57.2,57,29.78,10.0,SSW,5.8,-,N/A,,Clear,200,2013-05-22 04:15:00
12:35 AM,73.4,57.2,57,29.78,10.0,SSW,4.6,-,N/A,,Clear,200,2013-05-22 04:35:00
12:55 AM,73.4,57.2,57,29.78,10.0,SSW,3.5,-,N/A,,Clear,210,2013-05-22 04:55:00
1:15 AM,73.4,57.2,57,29.77,10.0,South,3.5,-,N/A,,Clear,190,2013-05-22 05:15:00
1:35 AM,71.6,57.2,60,29.77,10.0,Calm,Calm,-,N/A,,Clear,0,2013-05-22 05:35:00
1:55 AM,71.6,57.2,60,29.77,10.0,SSW,5.8,-,N/A,,Clear,210,2013-05-22 05:55:00
2:15 AM,71.6,57.2,60,29.77,10.0,SSW,3.5,-,N/A,,Clear,200,2013-05-22 06:15:00
2:35 AM,69.8,59.0,68,29.76,10.0,South,5.8,-,N/A,,Clear,190,2013-05-22 06:35:00
2:55 AM,71.6,59.0,64,29.76,10.0,SW,4.6,-,N/A,,Clear,220,2013-05-22 06:55:00
3:15 AM,71.6,57.2,60,29.76,10.0,SW,4.6,-,N/A,,Clear,220,2013-05-22 07:15:00
3:35 AM,69.8,57.2,64,29.76,10.0,SW,3.5,-,N/A,,Clear,230,2013-05-22 07:35:00
3:55 AM,69.8,57.2,64,29.75,10.0,SSW,3.5,-,N/A,,Clear,200,2013-05-22 07:55:00
4:15 AM,68.0,57.2,68,29.75,10.0,Calm,Calm,-,N/A,,Clear,0,2013-05-22 08:15:00
4:35 AM,68.0,57.2,68,29.76,10.0,South,4.6,-,N/A,,Clear,180,2013-05-22 08:35:00
4:55 AM,69.8,59.0,68,29.76,10.0,South,6.9,-,N/A,,Mostly Cloudy,190,2013-05-22 08:55:00
5:15 AM,68.0,59.0,73,29.75,10.0,South,4.6,-,N/A,,Mostly Cloudy,190,2013-05-22 09:15:00
5:35 AM,68.0,59.0,73,29.75,10.0,South,5.8,-,N/A,,Scattered Clouds,190,2013-05-22 09:35:00
5:55 AM,68.0,59.0,73,29.76,10.0,South,5.8,-,N/A,,Mostly Cloudy,190,2013-05-22 09:55:00
6:15 AM,69.8,59.0,68,29.76,10.0,South,4.6,-,N/A,,Mostly Cloudy,180,2013-05-22 10:15:00
6:35 AM,68.0,60.8,78,29.76,10.0,South,4.6,-,N/A,Rain,Rain,170,2013-05-22 10:35:00
6:55 AM,68.0,60.8,78,29.77,10.0,South,5.8,-,N/A,,Overcast,190,2013-05-22 10:55:00
7:15 AM,68.0,60.8,78,29.78,10.0,SSW,6.9,-,N/A,,Overcast,210,2013-05-22 11:15:00
7:35 AM,69.8,60.8,73,29.77,10.0,SSW,6.9,-,N/A,,Overcast,200,2013-05-22 11:35:00
7:55 AM,69.8,60.8,73,29.78,10.0,South,10.4,-,N/A,,Overcast,190,2013-05-22 11:55:00
8:15 AM,69.8,60.8,73,29.78,10.0,South,9.2,-,N/A,,Overcast,190,2013-05-22 12:15:00
8:35 AM,69.8,60.8,73,29.78,10.0,South,9.2,-,N/A,,Overcast,180,2013-05-22 12:35:00
8:55 AM,69.8,60.8,73,29.77,10.0,SSW,6.9,-,N/A,,Mostly Cloudy,200,2013-05-22 12:55:00
9:15 AM,69.8,60.8,73,29.76,10.0,South,8.1,-,N/A,,Scattered Clouds,190,2013-05-22 13:15:00
9:35 AM,69.8,60.8,73,29.77,10.0,SSW,11.5,17.3,N/A,,Scattered Clouds,200,2013-05-22 13:35:00
9:55 AM,69.8,60.8,73,29.76,10.0,SSW,8.1,-,N/A,,Mostly Cloudy,210,2013-05-22 13:55:00
10:15 AM,71.6,60.8,69,29.75,10.0,South,9.2,-,N/A,,Mostly Cloudy,190,2013-05-22 14:15:00
10:35 AM,73.4,60.8,65,29.75,10.0,SSW,9.2,16.1,N/A,,Mostly Cloudy,210,2013-05-22 14:35:00
10:55 AM,77.0,60.8,57,29.74,10.0,SSW,9.2,-,N/A,,Mostly Cloudy,200,2013-05-22 14:55:00
11:15 AM,73.4,60.8,65,29.74,10.0,SSW,10.4,-,N/A,,Overcast,200,2013-05-22 15:15:00
11:35 AM,73.4,60.8,65,29.75,10.0,SW,5.8,-,N/A,,Overcast,220,2013-05-22 15:35:00
11:55 AM,71.6,60.8,69,29.74,10.0,SSW,8.1,-,N/A,,Overcast,200,2013-05-22 15:55:00
12:15 PM,73.4,62.6,69,29.74,10.0,South,8.1,-,N/A,,Overcast,190,2013-05-22 16:15:00
12:35 PM,73.4,60.8,65,29.74,10.0,South,11.5,17.3,N/A,,Overcast,190,2013-05-22 16:35:00
12:55 PM,71.6,60.8,69,29.73,10.0,South,15.0,21.9,N/A,,Overcast,180,2013-05-22 16:55:00
1:15 PM,69.8,62.6,78,29.73,10.0,SSW,9.2,-,N/A,Rain,Light Rain,200,2013-05-22 17:15:00
1:35 PM,73.4,62.6,69,29.73,10.0,SSW,10.4,-,N/A,,Mostly Cloudy,210,2013-05-22 17:35:00
1:55 PM,77.0,60.8,57,29.72,10.0,SW,12.7,20.7,N/A,,Mostly Cloudy,220,2013-05-22 17:55:00
2:15 PM,77.0,59.0,54,29.71,10.0,SW,15.0,21.9,N/A,,Scattered Clouds,220,2013-05-22 18:15:00
2:35 PM,78.8,59.0,51,29.71,10.0,SSW,18.4,24.2,N/A,,Scattered Clouds,200,2013-05-22 18:35:00
2:55 PM,78.8,59.0,51,29.70,10.0,SW,12.7,18.4,N/A,,Mostly Cloudy,220,2013-05-22 18:55:00
3:15 PM,82.4,55.4,39,29.69,10.0,SW,12.7,26.5,N/A,,Scattered Clouds,230,2013-05-22 19:15:00
3:35 PM,80.6,53.6,39,29.69,10.0,SW,12.7,23.0,N/A,,Mostly Cloudy,220,2013-05-22 19:35:00
3:55 PM,80.6,53.6,39,29.68,10.0,SW,12.7,23.0,N/A,,Mostly Cloudy,220,2013-05-22 19:55:00
4:15 PM,80.6,53.6,39,29.68,10.0,SSW,13.8,21.9,N/A,,Mostly Cloudy,210,2013-05-22 20:15:00
4:35 PM,80.6,53.6,39,29.68,10.0,SW,16.1,23.0,N/A,,Scattered Clouds,220,2013-05-22 20:35:00
4:55 PM,78.8,53.6,42,29.68,10.0,SW,11.5,23.0,N/A,,Mostly Cloudy,220,2013-05-22 20:55:00
5:15 PM,77.0,59.0,54,29.70,10.0,WSW,18.4,27.6,N/A,Rain,Light Rain,250,2013-05-22 21:15:00
5:35 PM,68.0,62.6,83,29.70,7.0,West,8.1,-,N/A,Rain,Light Rain,260,2013-05-22 21:35:00
5:55 PM,69.8,60.8,73,29.70,10.0,WSW,10.4,-,N/A,,Mostly Cloudy,250,2013-05-22 21:55:00
6:15 PM,69.8,62.6,78,29.69,10.0,WSW,5.8,-,N/A,,Mostly Cloudy,240,2013-05-22 22:15:00
6:35 PM,71.6,62.6,73,29.69,10.0,SW,5.8,-,N/A,,Overcast,230,2013-05-22 22:35:00
6:55 PM,73.4,62.6,69,29.69,10.0,SW,6.9,-,N/A,,Scattered Clouds,230,2013-05-22 22:55:00
7:15 PM,73.4,60.8,65,29.69,10.0,WSW,6.9,-,N/A,,Clear,240,2013-05-22 23:15:00
7:35 PM,73.4,60.8,65,29.69,10.0,Calm,Calm,-,N/A,,Clear,0,2013-05-22 23:35:00
7:55 PM,71.6,62.6,73,29.69,10.0,SSW,3.5,-,N/A,,Scattered Clouds,200,2013-05-22 23:55:00
8:15 PM,71.6,62.6,73,29.71,10.0,WSW,9.2,-,N/A,,Mostly Cloudy,250,2013-05-23 00:15:00
8:35 PM,66.2,57.2,73,29.72,10.0,West,6.9,-,N/A,,Overcast,270,2013-05-23 00:35:00
8:55 PM,66.2,55.4,68,29.72,10.0,Calm,Calm,-,N/A,,Overcast,0,2013-05-23 00:55:00
9:15 PM,66.2,55.4,68,29.73,10.0,SW,6.9,-,N/A,,Overcast,230,2013-05-23 01:15:00
9:35 PM,64.4,59.0,83,29.73,10.0,SSW,4.6,-,N/A,Rain,Light Rain,210,2013-05-23 01:35:00
9:55 PM,64.4,59.0,83,29.73,10.0,SW,4.6,-,N/A,,Overcast,230,2013-05-23 01:55:00
10:15 PM,64.4,59.0,83,29.73,10.0,Calm,Calm,-,N/A,,Overcast,0,2013-05-23 02:15:00
10:35 PM,64.4,60.8,88,29.73,10.0,SW,3.5,-,N/A,,Overcast,230,2013-05-23 02:35:00
10:55 PM,64.4,60.8,88,29.73,10.0,Calm,Calm,-,N/A,,Overcast,0,2013-05-23 02:55:00
11:15 PM,64.4,60.8,88,29.73,10.0,WSW,3.5,-,N/A,,Mostly Cloudy,240,2013-05-23 03:15:00
11:35 PM,62.6,60.8,94,29.73,10.0,Calm,Calm,-,N/A,,Overcast,0,2013-05-23 03:35:00
11:55 PM,62.6,59.0,88,29.73,10.0,WSW,3.5,-,N/A,,Scattered Clouds,240,2013-05-23 03:55:00